Spearfish, SD

3:19 PM MST on December 07, 2016 (GMT -0700)
Black Hills-Ice

Weather History for KSPF - April, 2014

Change the Weather History Date:

Saturday, April 26, 2014

  Actual Average (KEFC) Record (KEFC)
Temperature  
Mean Temperature 57 °F -  
Max Temperature 66 °F 61 °F 88 °F (1952)
Min Temperature 48 °F 37 °F 21 °F (1950)
Degree Days  
Heating Degree Days 8    
Growing Degree Days 7 (Base 50)    
Moisture  
Dew Point 36 °F    
Average Humidity 46    
Maximum Humidity 67    
Minimum Humidity 30    
Precipitation  
Precipitation 0.00 in - - ()
Sea Level Pressure  
Sea Level Pressure 29.51 in    
Wind  
Wind Speed 16 mph (ESE)    
Max Wind Speed 29 mph    
Max Gust Speed 39 mph    
Visibility 10 miles    
Events Thunderstorm    
Averages and records for this station are not official NWS values.
T = Trace of Precipitation, MM = Missing Value Source: NWS Daily Summary

Daily Weather History Graph

Daily Weather History Graph

Search for Another Location

Airport or City:

Trip Planner

Search our weather history database for the weather conditions in past years. The results will help you decide how hot, cold, wet, or windy it might be!

Date:

Astronomy

Apr. 26, 2014 Rise Set
Actual Time 6:53 AM CDT 8:53 PM CDT
Civil Twilight 6:21 AM CDT 9:25 PM CDT
Nautical Twilight 5:43 AM CDT 10:03 PM CDT
Astronomical Twilight 5:00 AM CDT 10:46 PM CDT
Moon 5:25 AM CDT (4/26) 6:18 PM CDT (4/26)
Length of Visible Light 15h 03m
Length of Day
14h 00m
Waning Crescent, 8% of the Moon is Illuminated
Apr 26
Waning Crescent
Apr 29
New
May 6
First Quarter
May 14
Full
May 21
Last Quarter

Hourly Weather History & Observations

Time (CDT) Temp. Dew Point Humidity Pressure Visibility Wind Dir Wind Speed Gust Speed Precip Events Conditions
12:15 AM 57.2 °F 28.4 °F 33% 29.68 in 10.0 mi ESE 18.4 mph 29.9 mph N/A   Mostly Cloudy
12:35 AM 57.2 °F 28.4 °F 33% 29.68 in 10.0 mi SE 17.3 mph 25.3 mph N/A   Partly Cloudy
12:55 AM 57.2 °F 30.2 °F 36% 29.67 in 10.0 mi ESE 13.8 mph 19.6 mph N/A   Scattered Clouds
1:15 AM 57.2 °F 30.2 °F 36% 29.69 in 10.0 mi SE 18.4 mph - N/A   Mostly Cloudy
1:35 AM 57.2 °F 32.0 °F 38% 29.69 in 10.0 mi SE 10.4 mph - N/A   Mostly Cloudy
1:55 AM 55.4 °F 32.0 °F 41% 29.68 in 10.0 mi SE 8.1 mph - N/A   Partly Cloudy
2:15 AM 53.6 °F 32.0 °F 44% 29.67 in 10.0 mi East 8.1 mph - N/A   Partly Cloudy
2:35 AM 50.0 °F 32.0 °F 50% 29.64 in 10.0 mi East 11.5 mph - N/A   Clear
2:55 AM 51.8 °F 32.0 °F 47% 29.60 in 10.0 mi East 10.4 mph - N/A   Clear
3:15 AM 50.0 °F 32.0 °F 50% 29.60 in 10.0 mi ESE 17.3 mph - N/A   Clear
3:35 AM 48.2 °F 32.0 °F 54% 29.59 in 10.0 mi East 17.3 mph - N/A   Clear
3:55 AM 48.2 °F 32.0 °F 54% 29.59 in 10.0 mi East 15.0 mph - N/A   Clear
4:15 AM 48.2 °F 32.0 °F 54% 29.57 in 10.0 mi East 17.3 mph - N/A   Clear
4:35 AM 50.0 °F 30.2 °F 47% 29.56 in 10.0 mi East 19.6 mph - N/A   Clear
4:55 AM 50.0 °F 30.2 °F 47% 29.54 in 10.0 mi East 18.4 mph - N/A   Clear
5:15 AM 50.0 °F 28.4 °F 43% 29.53 in 10.0 mi ENE 20.7 mph 25.3 mph N/A   Clear
5:55 AM 50.0 °F 28.4 °F 43% 29.51 in 10.0 mi SE 10.4 mph 20.7 mph N/A   Clear
6:15 AM 53.6 °F 28.4 °F 38% 29.50 in 10.0 mi SSE 21.9 mph 31.1 mph N/A   Clear
6:35 AM 53.6 °F 28.4 °F 38% 29.48 in 10.0 mi South 26.5 mph 36.8 mph N/A   Clear
6:55 AM 53.6 °F 28.4 °F 38% 29.47 in 10.0 mi South 28.8 mph 38.0 mph N/A   Clear
7:15 AM 55.4 °F 26.6 °F 33% 29.47 in 10.0 mi South 28.8 mph 39.1 mph N/A   Clear
7:35 AM 55.4 °F 26.6 °F 33% 29.47 in 10.0 mi South 24.2 mph 36.8 mph N/A   Clear
7:55 AM 55.4 °F 26.6 °F 33% 29.49 in 10.0 mi South 21.9 mph 31.1 mph N/A   Clear
8:15 AM 55.4 °F 26.6 °F 33% 29.52 in 10.0 mi WNW 4.6 mph 20.7 mph N/A   Clear
8:35 AM 55.4 °F 28.4 °F 36% 29.53 in 10.0 mi South 9.2 mph 23.0 mph N/A   Clear
8:55 AM 57.2 °F 28.4 °F 33% 29.52 in 10.0 mi SE 4.6 mph - N/A   Clear
9:15 AM 59.0 °F 30.2 °F 34% 29.52 in 10.0 mi South 6.9 mph 16.1 mph N/A   Clear
9:35 AM 62.6 °F 32.0 °F 32% 29.52 in 10.0 mi South 5.8 mph - N/A   Clear
9:55 AM 62.6 °F 32.0 °F 32% 29.51 in 10.0 mi SSE 6.9 mph - N/A   Clear
10:15 AM 64.4 °F 32.0 °F 30% 29.51 in 10.0 mi SSE 5.8 mph - N/A   Clear
10:35 AM 62.6 °F 33.8 °F 34% 29.50 in 10.0 mi East 13.8 mph 20.7 mph N/A   Clear
10:55 AM 62.6 °F 33.8 °F 34% 29.50 in 10.0 mi ESE 16.1 mph - N/A   Clear
11:15 AM 64.4 °F 35.6 °F 34% 29.49 in 10.0 mi ESE 16.1 mph - N/A   Clear
11:55 AM 62.6 °F 39.2 °F 42% 29.49 in 10.0 mi ENE 10.4 mph - N/A   Clear
12:15 PM 59.0 °F 37.4 °F 45% 29.48 in 10.0 mi ESE 19.6 mph 25.3 mph N/A   Clear
12:35 PM 59.0 °F 39.2 °F 48% 29.49 in 10.0 mi East 20.7 mph - N/A   Clear
12:55 PM 59.0 °F 39.2 °F 48% 29.48 in 10.0 mi East 23.0 mph 28.8 mph N/A   Clear
1:15 PM 59.0 °F 39.2 °F 48% 29.47 in 10.0 mi ESE 24.2 mph 28.8 mph N/A   Clear
1:35 PM 60.8 °F 39.2 °F 45% 29.48 in 10.0 mi ESE 21.9 mph 27.6 mph N/A   Clear
1:55 PM 60.8 °F 39.2 °F 45% 29.47 in 10.0 mi ESE 23.0 mph - N/A   Clear
2:15 PM 60.8 °F 39.2 °F 45% 29.46 in 10.0 mi ESE 19.6 mph - N/A   Clear
2:35 PM 62.6 °F 41.0 °F 45% 29.46 in 10.0 mi ESE 19.6 mph 23.0 mph N/A   Clear
2:55 PM 62.6 °F 41.0 °F 45% 29.46 in 10.0 mi ESE 21.9 mph 25.3 mph N/A   Clear
3:15 PM 62.6 °F 41.0 °F 45% 29.46 in 10.0 mi ESE 23.0 mph 29.9 mph N/A   Clear
3:35 PM 62.6 °F 41.0 °F 45% 29.46 in 10.0 mi ESE 24.2 mph 27.6 mph N/A   Clear
3:55 PM 60.8 °F 41.0 °F 48% 29.47 in 10.0 mi ESE 20.7 mph - N/A   Clear
4:15 PM 62.6 °F 41.0 °F 45% 29.47 in 10.0 mi SE 18.4 mph 25.3 mph N/A   Clear
4:35 PM 62.6 °F 41.0 °F 45% 29.46 in 10.0 mi SE 17.3 mph 24.2 mph N/A   Clear
4:55 PM 64.4 °F 41.0 °F 42% 29.46 in 10.0 mi SE 17.3 mph - N/A   Clear
5:15 PM 66.2 °F 41.0 °F 40% 29.45 in 10.0 mi SE 16.1 mph - N/A   Clear
5:35 PM 66.2 °F 41.0 °F 40% 29.45 in 10.0 mi ESE 19.6 mph 24.2 mph N/A   Clear
5:55 PM 64.4 °F 41.0 °F 42% 29.45 in 10.0 mi ESE 18.4 mph - N/A   Clear
6:15 PM 62.6 °F 42.8 °F 48% 29.45 in 10.0 mi ESE 20.7 mph 25.3 mph N/A   Clear
6:35 PM 62.6 °F 42.8 °F 48% 29.45 in 10.0 mi ESE 17.3 mph 26.5 mph N/A   Clear
6:55 PM 62.6 °F 42.8 °F 48% 29.45 in 10.0 mi ESE 16.1 mph 20.7 mph N/A   Clear
7:15 PM 60.8 °F 42.8 °F 52% 29.45 in 10.0 mi SE 13.8 mph - N/A   Clear
7:35 PM 60.8 °F 41.0 °F 48% 29.45 in 10.0 mi SE 13.8 mph - N/A   Clear
7:55 PM 59.0 °F 42.8 °F 55% 29.45 in 10.0 mi SE 9.2 mph - N/A   Clear
8:15 PM 59.0 °F 42.8 °F 55% 29.45 in 10.0 mi ESE 11.5 mph - N/A   Clear
8:35 PM 57.2 °F 42.8 °F 59% 29.46 in 10.0 mi SE 8.1 mph - N/A   Clear
8:55 PM 55.4 °F 44.6 °F 67% 29.47 in 4.0 mi NNE 3.5 mph - N/A   Haze
9:15 PM 57.2 °F 44.6 °F 63% 29.47 in 10.0 mi ESE 6.9 mph - N/A   Scattered Clouds
9:35 PM 55.4 °F 44.6 °F 67% 29.47 in 10.0 mi ESE 9.2 mph - N/A   Partly Cloudy
9:55 PM 55.4 °F 44.6 °F 67% 29.48 in 10.0 mi ESE 11.5 mph - N/A   Partly Cloudy
10:15 PM 55.4 °F 42.8 °F 63% 29.47 in 10.0 mi ESE 13.8 mph - N/A   Partly Cloudy
10:35 PM 55.4 °F 42.8 °F 63% 29.47 in 10.0 mi ESE 10.4 mph - N/A   Scattered Clouds
10:55 PM 53.6 °F 42.8 °F 67% 29.47 in 10.0 mi ESE 10.4 mph - N/A   Partly Cloudy
11:15 PM 53.6 °F 42.8 °F 67% 29.46 in 10.0 mi East 10.4 mph - N/A   Clear
11:35 PM 53.6 °F 41.0 °F 62% 29.46 in 10.0 mi East 15.0 mph - N/A Thunderstorm Clear
11:55 PM 53.6 °F 41.0 °F 62% 29.46 in 10.0 mi ENE 17.3 mph - N/A   Clear